EW4271 Weather Reports


time (UTC)temp
C
wind
direction
speed
KPH
gust
KPH
rain 1hr
cm
rain 24hr
cm
rain mn
cm
humidity
%
barometer
mb
20260505224141 13 360 3.2 9.7 0.00 0.00 0.00 40 1011.7
20260505223635 13 347 4.8 9.7 0.00 0.00 0.00 42 1011.9
20260505223133 14 76 6.4 14.5 0.00 0.00 0.00 42 1011.7
20260505222626 14 112 8.0 16.1 0.00 0.00 0.00 42 1011.5
20260505222141 14 267 3.2 8.0 0.00 0.00 0.00 42 1011.7
20260505221634 14 148 1.6 9.7 0.00 0.00 0.00 44 1011.8
20260505221127 13 109 1.6 6.4 0.00 0.00 0.00 44 1011.9
20260505220622 13 150 1.6 8.0 0.00 0.00 0.00 43 1012.1
20260505220135 13 292 1.6 4.8 0.00 0.00 0.00 43 1012.0
20260505215629 13 129 1.6 6.4 0.00 0.00 0.00 42 1012.0
20260505215143 13 147 1.6 9.7 0.00 0.00 0.00 42 1012.1
20260505214640 13 139 3.2 9.7 0.00 0.00 0.00 41 1012.2
20260505214154 13 134 1.6 9.7 0.00 0.00 0.00 42 1012.3
20260505213627 13 58 1.6 8.0 0.00 0.00 0.00 43 1012.3
20260505213141 13 58 1.6 8.0 0.00 0.00 0.00 41 1012.4
20260505212634 13 344 0.0 4.8 0.00 0.00 0.00 42 1012.6
20260505212128 13 346 1.6 4.8 0.00 0.00 0.00 42 1012.6
20260505211623 13 49 3.2 9.7 0.00 0.00 0.00 41 1012.7
20260505211136 14 55 3.2 9.7 0.00 0.00 0.00 40 1012.9
20260505210634 14 242 3.2 8.0 0.00 0.00 0.00 39 1012.9
20260505210128 14 73 3.2 8.0 0.00 0.00 0.00 40 1012.8
20260505205622 14 205 3.2 12.9 0.00 0.00 0.00 40 1013.0
20260505205157 14 207 3.2 12.9 0.00 0.00 0.00 41 1013.0
20260505204630 14 103 3.2 8.0 0.00 0.00 0.00 42 1013.1
20260505204123 13 259 3.2 8.0 0.00 0.00 0.00 43 1013.2
20260505203637 13 144 1.6 6.4 0.00 0.00 0.00 47 1013.3
20260505203130 12 275 3.2 8.0 0.00 0.00 0.00 47 1013.4
20260505202628 12 297 1.6 8.0 0.00 0.00 0.00 50 1013.7
20260505202121 12 63 3.2 8.0 0.00 0.00 0.00 51 1013.9
20260505201635 12 340 3.2 11.3 0.00 0.00 0.00 47 1013.8
20260505201129 12 212 1.6 11.3 0.00 0.00 0.00 47 1013.8
20260505200623 12 259 1.6 8.0 0.00 0.00 0.00 47 1013.7
20260505200158 12 288 3.2 8.0 0.00 0.00 0.00 49 1013.6
20260505195630 12 16 3.2 8.0 0.00 0.00 0.00 49 1013.6
20260505195125 12 36 4.8 8.0 0.00 0.00 0.00 48 1013.8
20260505194622 12 11 3.2 11.3 0.00 0.00 0.00 50 1013.8
20260505194136 12 324 3.2 12.9 0.00 0.00 0.00 50 1013.9
20260505193631 12 12 3.2 8.0 0.00 0.00 0.00 53 1013.8
20260505193122 12 315 4.8 8.0 0.00 0.00 0.00 49 1013.8
20260505192637 12 42 1.6 6.4 0.00 0.00 0.00 50 1013.8
20260505192130 12 275 1.6 8.0 0.00 0.00 0.00 50 1013.9
20260505191644 12 296 3.2 16.1 0.00 0.00 0.00 52 1013.9
20260505191134 12 236 4.8 16.1 0.00 0.00 0.00 51 1013.9
20260505190629 12 294 3.2 6.4 0.00 0.00 0.00 57 1014.0
20260505190126 11 165 1.6 8.0 0.00 0.00 0.00 60 1014.0
20260505185640 11 14 1.6 9.7 0.00 0.00 0.00 66 1014.0
20260505185133 11 289 6.4 9.7 0.00 0.00 0.00 59 1014.2
20260505184627 10 333 4.8 9.7 0.00 0.00 0.00 60 1014.2
20260505184141 10 32 1.6 6.4 0.00 0.00 0.00 62 1014.1
20260505183635 10 302 3.2 6.4 0.00 0.00 0.00 60 1014.2
20260505183129 11 296 1.6 6.4 0.00 0.00 0.00 59 1014.1
20260505182643 11 315 1.6 4.8 0.00 0.00 0.00 56 1014.1
20260505182140 11 360 1.6 4.8 0.00 0.00 0.00 51 1014.0
20260505181633 11 273 1.6 6.4 0.00 0.00 0.00 51 1013.9
20260505181128 12 11 3.2 6.4 0.00 0.00 0.00 50 1013.7
20260505180621 12 81 1.6 6.4 0.00 0.00 0.00 49 1013.7
20260505180136 12 137 0.0 6.4 0.00 0.00 0.00 43 1013.7
20260505175649 12 277 1.6 6.4 0.00 0.00 0.00 43 1013.6
20260505175122 12 46 4.8 6.4 0.00 0.00 0.00 43 1013.5
20260505174636 12 288 3.2 6.4 0.00 0.00 0.00 43 1013.5
20260505174133 12 312 1.6 6.4 0.00 0.00 0.00 43 1013.7
20260505173627 12 139 3.2 6.4 0.00 0.00 0.00 43 1013.8
20260505173141 12 148 3.2 8.0 0.00 0.00 0.00 42 1014.0
20260505172635 12 134 3.2 11.3 0.00 0.00 0.00 42 1014.0
20260505172128 12 130 1.6 11.3 0.00 0.00 0.00 42 1014.0
20260505171622 12 98 3.2 8.0 0.00 0.00 0.00 42 1014.0
20260505171156 12 34 3.2 11.3 0.00 0.00 0.00 42 1014.0
20260505170627 12 167 3.2 12.9 0.00 0.00 0.00 41 1014.1
20260505170141 12 178 3.2 8.0 0.00 0.00 0.00 42 1014.0
20260505165639 12 256 1.6 9.7 0.00 0.00 0.00 42 1014.1
20260505165132 12 151 3.2 12.9 0.00 0.00 0.00 44 1014.2
20260505164646 11 121 4.8 9.7 0.00 0.00 0.00 45 1014.3
20260505164139 11 143 3.2 8.0 0.00 0.00 0.00 44 1014.4
20260505163633 11 176 1.6 4.8 0.00 0.00 0.00 44 1014.5
20260505163147 11 202 0.0 4.8 0.00 0.00 0.00 44 1014.6
20260505162640 11 36 0.0 6.4 0.00 0.00 0.00 45 1014.6
20260505162134 11 321 1.6 8.0 0.00 0.00 0.00 46 1014.5
20260505161627 11 355 3.2 8.0 0.00 0.00 0.00 45 1014.5
20260505161125 11 309 1.6 6.4 0.00 0.00 0.00 46 1014.5
20260505160639 11 189 1.6 6.4 0.00 0.00 0.00 46 1014.7
20260505160153 11 327 1.6 6.4 0.00 0.00 0.00 46 1014.7
20260505153135 11 91 1.6 8.0 0.00 0.00 0.00 45 1015.0
20260505152632 11 177 3.2 8.0 0.00 0.00 0.00 44 1014.8
20260505152126 11 197 1.6 4.8 0.00 0.00 0.00 44 1015.0
20260505151638 11 198 1.6 4.8 0.00 0.00 0.00 45 1015.1
20260505151131 10 126 1.6 4.8 0.00 0.00 0.00 45 1015.2
20260505150624 10 299 1.6 11.3 0.00 0.00 0.00 45 1015.1
20260505150137 10 239 1.6 11.3 0.00 0.00 0.00 45 1015.2
20260505140644 10 19 1.6 6.4 0.00 0.00 0.00 52 1015.1
20260505140137 10 5 3.2 6.4 0.00 0.00 0.00 51 1015.3
20260505130123 9 194 1.6 3.2 0.00 0.00 0.00 52 1015.4
20260505124627 9 252 3.2 8.0 0.00 0.00 0.00 52 1015.1
20260505124141 9 349 3.2 6.4 0.00 0.00 0.00 52 1015.2
20260505123635 9 54 0.0 0.0 0.00 0.00 0.00 52 1015.2
20260505123128 9 54 0.0 3.2 0.00 0.00 0.00 51 1015.2
20260505122642 9 54 0.0 4.8 0.00 0.00 0.00 50 1015.1
20260505122136 9 54 1.6 6.4 0.00 0.00 0.00 50 1015.1
20260505121629 9 42 1.6 6.4 0.00 0.00 0.00 50 1015.0
20260505121128 9 88 3.2 3.2 0.00 0.00 0.00 49 1014.9
20260505120639 9 240 0.0 0.0 0.00 0.00 0.00 49 1014.9
20260505120132 9 157 0.0 0.0 0.00 0.00 0.00 48 1014.7
20260505115646 10 157 0.0 0.0 0.00 0.00 0.00 47 1014.7
20260505115139 10 157 0.0 3.2 0.00 0.00 0.00 47 1014.6
20260505114632 10 157 0.0 3.2 0.00 0.00 0.00 46 1014.7
20260505114126 10 166 0.0 0.0 0.00 0.00 0.00 46 1014.8
20260505113640 10 166 0.0 3.2 0.00 0.00 0.00 45 1014.8
20260505113154 10 264 0.0 6.4 0.00 0.00 0.00 45 1014.7
20260505112632 10 279 1.6 9.7 0.00 0.00 0.00 45 1014.8
20260505112126 10 49 3.2 4.8 0.00 0.00 0.00 45 1014.8
20260505111639 10 153 0.0 4.8 0.00 0.00 0.00 44 1014.8
20260505111132 10 153 1.6 4.8 0.00 0.00 0.00 43 1014.9
20260505110627 10 198 0.0 4.8 0.00 0.00 0.00 42 1014.9
20260505110140 10 198 1.6 4.8 0.00 0.00 0.00 42 1015.0
20260505102131 10 35 4.8 14.5 0.00 0.00 0.00 44 1014.5
20260505101624 10 53 1.6 8.0 0.00 0.00 0.00 44 1014.6
20260505101138 10 53 3.2 11.3 0.00 0.00 0.00 44 1014.7
20260505100636 10 56 4.8 17.7 0.00 0.00 0.00 44 1014.5
20260505100130 10 32 6.4 17.7 0.00 0.00 0.00 44 1014.5
20260505095624 10 19 3.2 20.9 0.00 0.00 0.00 44 1014.6
20260505095137 10 26 4.8 20.9 0.00 0.00 0.00 44 1014.7
20260505094631 10 236 1.6 6.4 0.00 0.00 0.00 43 1014.7
20260505094125 10 48 1.6 11.3 0.00 0.00 0.00 43 1014.7
20260505093639 10 57 3.2 11.3 0.00 0.00 0.00 42 1014.7
20260505093153 10 36 1.6 14.5 0.00 0.00 0.00 42 1014.7
20260505092630 10 78 3.2 17.7 0.00 0.00 0.00 42 1014.7
20260505092144 10 48 3.2 6.4 0.00 0.00 0.00 43 1014.9
20260505091636 10 26 3.2 6.4 0.00 0.00 0.00 42 1014.7
20260505091151 10 103 0.0 12.9 0.00 0.00 0.00 41 1014.7
20260505090624 11 30 4.8 8.0 0.00 0.00 0.00 42 1014.7
20260505090136 11 28 3.2 4.8 0.00 0.00 0.00 40 1014.9
20260505085631 11 26 1.6 12.9 0.00 0.00 0.00 41 1014.8
20260505085125 11 134 4.8 12.9 0.00 0.00 0.00 40 1015.0
20260505084639 11 49 3.2 9.7 0.00 0.00 0.00 40 1015.2
20260505084132 11 49 3.2 9.7 0.00 0.00 0.00 40 1015.1
20260505083628 11 89 0.0 6.4 0.00 0.00 0.00 40 1015.1
20260505083123 11 74 3.2 12.9 0.00 0.00 0.00 39 1015.2
20260505082636 11 203 3.2 14.5 0.00 0.00 0.00 39 1015.1
20260505082131 11 57 4.8 14.5 0.00 0.00 0.00 39 1015.0
20260505081625 11 360 4.8 12.9 0.00 0.00 0.00 39 1015.3
20260505081139 11 177 4.8 12.9 0.00 0.00 0.00 38 1015.3
20260505080653 11 67 4.8 12.9 0.00 0.00 0.00 38 1015.5
20260505080126 11 286 3.2 14.5 0.00 0.00 0.00 38 1015.7
20260505075625 11 286 6.4 14.5 0.00 0.00 0.00 37 1015.5
20260505075139 11 233 4.8 6.4 0.00 0.00 0.00 37 1015.4
20260505074632 11 71 0.0 9.7 0.00 0.00 0.00 36 1015.4
20260505074127 12 277 3.2 9.7 0.00 0.00 0.00 36 1015.6
20260505073701 12 47 4.8 19.3 0.00 0.00 0.00 35 1015.6
20260505073134 12 350 6.4 19.3 0.00 0.00 0.00 36 1015.6
20260505072627 12 316 3.2 14.5 0.00 0.00 0.00 35 1015.4
20260505072122 12 5 4.8 8.0 0.00 0.00 0.00 35 1015.2
20260505071640 12 333 4.8 9.7 0.00 0.00 0.00 34 1015.2
20260505071133 12 70 4.8 9.7 0.00 0.00 0.00 34 1015.2
20260505070627 12 360 4.8 9.7 0.00 0.00 0.00 34 1015.2
20260505070140 12 355 3.2 9.7 0.00 0.00 0.00 34 1015.2
20260505065635 12 114 3.2 9.7 0.00 0.00 0.00 34 1015.3
20260505065128 12 22 1.6 17.7 0.00 0.00 0.00 33 1015.3
20260505064623 12 79 6.4 17.7 0.00 0.00 0.00 33 1015.2
20260505064136 12 257 3.2 9.7 0.00 0.00 0.00 33 1015.2
20260505063635 12 53 4.8 20.9 0.00 0.00 0.00 32 1015.2
20260505063127 12 5 8.0 20.9 0.00 0.00 0.00 32 1015.1
20260505062622 12 355 4.8 8.0 0.00 0.00 0.00 33 1015.2
20260505062135 12 47 1.6 6.4 0.00 0.00 0.00 33 1015.2
20260505061630 12 292 3.2 8.0 0.00 0.00 0.00 32 1015.2
20260505061122 13 237 1.6 8.0 0.00 0.00 0.00 31 1015.4
20260505060636 13 35 1.6 4.8 0.00 0.00 0.00 32 1015.4
20260505060130 13 79 1.6 14.5 0.00 0.00 0.00 32 1015.2
20260505055627 13 240 4.8 14.5 0.00 0.00 0.00 32 1015.0
20260505055201 13 228 3.2 11.3 0.00 0.00 0.00 34 1015.1
20260505054634 12 272 0.0 4.8 0.00 0.00 0.00 37 1015.2
20260505054126 12 300 3.2 8.0 0.00 0.00 0.00 37 1015.3
20260505053641 13 298 3.2 8.0 0.00 0.00 0.00 38 1015.0
20260505053135 13 161 0.0 4.8 0.00 0.00 0.00 36 1015.1
20260505052628 13 161 1.6 4.8 0.00 0.00 0.00 36 1014.9
20260505052122 13 161 0.0 4.8 0.00 0.00 0.00 37 1014.9
20260505051636 13 161 3.2 4.8 0.00 0.00 0.00 35 1014.8
20260505051134 13 136 0.0 0.0 0.00 0.00 0.00 36 1014.7
20260505050626 14 136 0.0 0.0 0.00 0.00 0.00 35 1014.8
20260505050139 14 142 0.0 0.0 0.00 0.00 0.00 35 1014.8
20260505041624 14 261 1.6 9.7 0.00 0.00 0.00 32 1014.8
20260505041158 14 207 1.6 9.7 0.00 0.00 0.00 33 1014.7
20260505040630 14 146 1.6 9.7 0.00 0.00 0.00 32 1014.7
20260505040125 14 232 4.8 9.7 0.00 0.00 0.00 32 1014.6
20260505035638 14 134 1.6 3.2 0.00 0.00 0.00 32 1014.8
20260505035132 15 134 1.6 8.0 0.00 0.00 0.00 32 1014.9
20260505034626 15 140 1.6 8.0 0.00 0.00 0.00 31 1014.7
20260505034159 15 90 3.2 8.0 0.00 0.00 0.00 31 1014.7
20260505033637 14 163 1.6 6.4 0.00 0.00 0.00 31 1014.6
20260505033152 15 207 1.6 4.8 0.00 0.00 0.00 30 1014.6
20260505032625 15 149 1.6 9.7 0.00 0.00 0.00 30 1014.6
20260505032138 15 50 1.6 9.7 0.00 0.00 0.00 30 1014.6
20260505031652 15 48 4.8 8.0 0.00 0.00 0.00 30 1014.5
20260505031125 15 302 1.6 6.4 0.00 0.00 0.00 30 1014.5
20260505030638 15 63 1.6 9.7 0.00 0.00 0.00 29 1014.4
20260505030130 15 69 0.0 4.8 0.00 0.00 0.00 29 1014.4
20260505025644 15 83 1.6 6.4 0.00 0.00 0.00 29 1014.5
20260505025138 15 232 1.6 6.4 0.00 0.00 0.00 28 1014.5
20260505024630 15 103 1.6 12.9 0.00 0.00 0.00 28 1014.5
20260505024127 15 232 1.6 6.4 0.00 0.00 0.00 28 1014.2
20260505023639 15 146 1.6 12.9 0.00 0.00 0.00 28 1014.1
20260505023132 15 49 4.8 12.9 0.00 0.00 0.00 28 1014.3
20260505022646 15 61 1.6 4.8 0.00 0.00 0.00 26 1014.2
20260505022158 15 45 1.6 4.8 0.00 0.00 0.00 26 1014.2
20260505021629 15 144 1.6 4.8 0.00 0.00 0.00 26 1014.0
20260505021123 15 171 3.2 6.4 0.00 0.00 0.00 25 1014.1
20260505020637 15 53 1.6 9.7 0.00 0.00 0.00 25 1014.1
20260505020129 16 209 4.8 8.0 0.00 0.00 0.00 25 1014.2
20260505015644 16 88 1.6 6.4 0.00 0.00 0.00 24 1014.2
20260505015158 16 355 3.2 4.8 0.00 0.00 0.00 23 1014.1
20260505014634 16 177 1.6 8.0 0.00 0.00 0.00 23 1014.1
20260505014127 16 219 3.2 8.0 0.00 0.00 0.00 24 1014.0
20260505013701 16 302 3.2 8.0 0.00 0.00 0.00 23 1013.9
20260505013134 16 59 3.2 12.9 0.00 0.00 0.00 23 1013.9
20260505012628 16 276 1.6 12.9 0.00 0.00 0.00 22 1013.9
20260505012122 16 78 0.0 6.4 0.00 0.00 0.00 22 1013.8
20260505011636 16 42 3.2 6.4 0.00 0.00 0.00 22 1013.8
20260505011131 17 213 3.2 11.3 0.00 0.00 0.00 21 1013.7
20260505010628 17 194 1.6 16.1 0.00 0.00 0.00 21 1013.7
20260505010143 17 306 3.2 16.1 0.00 0.00 0.00 21 1013.8
20260505005635 17 273 4.8 16.1 0.00 0.00 0.00 20 1013.8
20260505005129 17 66 3.2 8.0 0.00 0.00 0.00 19 1013.9
20260505004622 17 316 4.8 8.0 0.00 0.00 0.00 19 1013.9
20260505004136 17 337 0.0 8.0 0.00 0.00 0.00 19 1014.0
20260505003629 17 355 4.8 8.0 0.00 0.00 0.00 19 1013.9
20260505003144 17 140 3.2 11.3 0.00 0.00 0.00 19 1014.0
20260505002636 17 22 1.6 8.0 0.00 0.00 0.00 20 1014.0
20260505002133 17 305 3.2 16.1 0.00 0.00 0.00 19 1014.0
20260505001628 17 307 3.2 9.7 0.00 0.00 0.00 18 1013.9
20260505001141 17 302 1.6 8.0 0.00 0.00 0.00 20 1013.9
20260505000655 17 279 3.2 9.7 0.00 0.00 0.00 19 1013.9
20260505000127 17 90 1.6 17.7 0.00 0.00 0.00 19 1014.0
20260504235641 17 290 6.4 17.7 0.00 0.00 0.00 18 1014.0
20260504235134 17 40 6.4 14.5 0.00 0.00 0.00 19 1014.0
20260504234649 17 146 3.2 17.7 0.00 0.00 0.00 20 1013.9
20260504234121 17 290 6.4 17.7 0.00 0.00 0.00 19 1014.1
20260504233656 17 238 4.8 14.5 0.00 0.00 0.00 20 1014.1
20260504233132 17 312 4.8 14.5 0.00 0.00 0.00 20 1014.1
20260504232625 18 306 6.4 14.5 0.00 0.00 0.00 19 1014.0
20260504232138 18 40 4.8 12.9 0.00 0.00 0.00 21 1014.1
20260504231632 18 332 4.8 14.5 0.00 0.00 0.00 20 1014.0
20260504231127 18 334 3.2 14.5 0.00 0.00 0.00 20 1014.0
20260504230639 18 42 3.2 11.3 0.00 0.00 0.00 20 1014.1
20260504230131 18 226 3.2 14.5 0.00 0.00 0.00 21 1014.2
20260504225624 18 213 4.8 16.1 0.00 0.00 0.00 21 1014.4
20260504225136 18 342 6.4 17.7 0.00 0.00 0.00 21 1014.5
20260504224633 18 203 4.8 14.5 0.00 0.00 0.00 21 1014.3